Torna al catalogo

STARLINK-36048

AttivoComunicazioniVLEO
NORAD 66603·PAYLOAD·🇺🇸 United States

Lanciato Nov 22, 2025 da Cape Canaveral Space Force Station

Loading…

Prossimi Passaggi (prossime 24 ore)

TLE

AggiornatoSource: CelesTrak SupGP

Epoca: Sep 15, 2026, 02:58 UTC

1 66603C 25270R   26258.12409722 -.00026296  00000+0 -95249-3 0  2583
2 66603  43.0013  66.1053 0001645 272.0950 325.6958 15.27589541    12

Traccia STARLINK-36048 in tempo reale con AllMySat

Download on the App Store